STARLINK-31932, 59929

Orbit data source: Space-Track

STARLINK-31932, 59929 is a payload satellite owned by SpaceX/Seattle (US) in LEO that was launched on Sat, 01 Jun 2024 UTC via an FALCON 9 launch vehicle from the Air Force Eastern Test Range (AFETR). Payload-class satellites include a variety of spacecraft equipped with specific instruments for various scientific and technological missions. These include communications satellites like Starlink; space stations such as the ISS; scientific satellites like the Hubble; Earth observation satellites from companies like Planet Labs, Umbra, and HawkEye 360; GPS; miniature CubeSats for education and research; and military/defense satellites.

Loading next visibility...
Identifier
59929, 2024-106H
Orbit
LEO
Last TLE update
11 hours ago
Origin
Manufacturer
SpaceX/Seattle
Mission
Operational spacecraft
Bus & Motor
STARLINK V2M, Unknown motor
Mass
730 kg wet, ~700 kg dry
Launch date (UTC)
2024-06-01 (1 year ago)
Launch vehicle
FALCON 9
Launch site
Air Force Eastern Test Range (AFETR)
Object type
Payload
Rocket body
Debris
Shape & HBR
Unknown
Radar Cross Section
Large (>1 m²)

Expand to show TLE details & history

TLE from 11 hours ago
0 STARLINK-31932
1 59929U 24106H   25181.65778127 -.00246230  00000-0 -92648-2 0  9997
2 59929  42.9997 312.6542 0000932 243.5973 116.4783 15.27490341 62011
Epoch: 2025-06-30T15:47Z
TLE epoch observation values (Epoch: 2025-06-30T15:47:12.301Z)
Latitude
-0.00003°
Longitude
156.88848°
Altitude
483.378 km
Speed
7.625 km/s
True Right ascension
20h 50m 37s
True Declination
0° 00' 00"
Sunlit
Object was in full shadow at epoch
Visualization orbit readout
Latitude
26.77674°
Longitude
-173.18062°
Altitude
484.71 km
Speed
7.627 km/s
Apparent Right ascension
00h 28m 45s
Apparent Declination
-5° 49' 53"
Sunlit
Object is in daylight
Visualization observer readout
Local Sidereal Time
14:34:21
Azimuth
47.987° ENE
Elevation
-45.763°
Doppler factor
1
Orbital elements
Apogee altitude
485.902 km
Perigee altitude
484.623 km
Semi-major axis
6,863.4 km
Eccentricity
0.00009
Inclination
42.9997°
RAAN
312.6542°
Arg. of periapsis
243.5973°
True anomaly
Unknown
Mean anomaly
116.4783°
Eccentric anomaly
Unknown
Mean motion
3.81711 °/min
Orbital period
94.31 mins
BSTAR
-0.0092648
Loading maneuver chart data...
Loading SW <> Apogee altitude chart data...
Loading historical data...
Loading historical data...
Loading historical data...
Loading historical data...
Loading historical data...
Loading historical data...
Loading historical data...

STARLINK-31932 Visibility forecast

Observer location: undefined°, undefined°

Span
Click to sort rows by Start time (UTC) header in descending order
Start Az.
Max El. time (UTC)
Max El. Az.
Max El.
End time (UTC)
End Az.
5 mins2025-07-01 12:26:08.221Z223.696° SW2025-07-01 12:28:08.221Z143.035° SSE39.706°2025-07-01 12:31:08.221Z78.182° E
5 mins2025-07-01 14:05:08.221Z282.762° WNW2025-07-01 14:07:08.221Z2.129° NNE39.771°2025-07-01 14:10:08.221Z69.962° E
5 mins2025-07-01 15:44:08.221Z295.719° NW2025-07-01 15:46:08.221Z357.781° N41.029°2025-07-01 15:49:08.221Z88.921° E
5 mins2025-07-01 17:23:08.221Z270.989° WNW2025-07-01 17:25:08.221Z212.611° SW35.849°2025-07-01 17:28:08.221Z136.765° SSE
|